Simultaneous Nadir Overpasses (SNOs) Predictions

Prediction of SNOs between GOES-16 and METOP-B Satellite Orbit:

Table of predicted SNOs for the next 14.0 days since TLE Epoch: 9/17/2022
Index Date Time (GOES-16) GOES-16 Lat,Lon METOP-B Lat,Lon Distance(km) Time Diff (sec)
1 09/18/2022 02:31:56 0.04, -75.19 0.06, -75.20 2.16 80
2 09/20/2022 14:30:11 -0.04, -75.22 -0.15, -74.78 51.15 80
3 09/22/2022 02:49:13 0.04, -75.21 -0.87, -79.38 473.77 80
4 09/23/2022 02:26:48 0.04, -75.22 0.24, -74.38 96.16 26
5 09/24/2022 14:47:27 -0.03, -75.26 0.82, -78.94 419.89 80
6 09/25/2022 14:24:09 -0.03, -75.27 -0.35, -73.96 150.45 80
7 09/27/2022 02:45:50 0.03, -75.28 -0.72, -78.55 373.25 80
8 09/28/2022 02:22:33 0.03, -75.29 0.45, -73.57 197.31 80
9 09/29/2022 14:41:25 -0.03, -75.33 0.60, -78.12 318.09 80
10 09/30/2022 14:20:47 -0.03, -75.35 -0.51, -73.13 252.50 80
